EHI
3 1 0 0 0 0 0 0 0 0 0 0 0 0 0 0 0 0 0 0 0 0 0 0 0 0 0 0 0 0 0 0 0 0 0 0 0 0
3 2 0 0 0 0 0 0 0 0 0 0 0 0 0 0 0 0 0 0 0 0 0 0 0 0 0 0 0 0 0 0 0 0 0 0 0 0
2 1 0 0 0 0 0 0 0 0 0 0 0 0 0 0 0 0 0 0 0 0 0 0 0 0 0 0 0 0 0 0 0 0 0 0 0 0
1 0 0 0 0 0 0 0 0 0 0 0 0 0 0 0 0 0 0 0 0 0 0 0 0 0 0 0 0 0 0 0 0 0 0 0 0 0
0 0 0 0 0 0 0 0 0 0 0 0 0 0 0 0 0 0 0 0 0 0 0 0 0 0 0 0 0 0 0 0 0 0 0 0 0 0
0 0 0 0 0 0 0 0 0 0 0 0 0 0 0 0 0 0 0 0 0 0 0 0 0 0 0 0 0 0 0 0 0 0 0 0 0 0
0 0 0 0 0 0 0 0 0 0 0 0 0 0 0 0 0 0 0 0 0 0 0 0 0 0 0 0 0 0 0 0 0 0 0 0 0 0
0 0 0 0 0 0 0 0 0 0 0 0 0 0 0 0 0 0 0 0 0 0 0 0 0 0 0 0 0 0 0 0 0 0 0 0 0 0
0 0 0 0 0 0 0 0 0 0 0 0 0 0 0 0 0 0 0 0 0 0 0 0 0 0 0 0 0 0 0 0 0 0 0 0 0 0
0 0 0 0 0 0 0 0 0 0 0 0 0 0 0 0 0 0 0 0 0 0 0 0 0 0 0 0 0 0 0 0 0 0 0 0 0 0
0 0 0 0 0 0 0 0 0 0 0 0 0 0 0 0 0 0 0 0 0 0 0 0 0 0 0 0 0 0 0 0 0 0 0 0 0 0
0 0 0 0 0 0 0 0 0 0 0 0 0 0 0 0 0 0 0 0 0 0 0 0 0 0 0 0 0 0 0 0 0 0 0 0 0 0
0 0 0 0 0 0 0 0 0 0 0 0 0 0 0 0 0 0 0 0 0 0 0 0 0 0 0 0 0 0 0 0 0 0 0 0 0 0
0 0 0 0 0 0 0 0 0 0 0 0 0 0 0 0 0 0 0 0 0 0 0 0 0 0 0 0 0 0 0 0 0 0 0 0 0 0
0 0 0 0 0 0 0 0 0 0 0 0 0 0 0 0 0 0 0 0 0 0 0 0 0 0 0 0 0 0 0 0 0 0 0 0 0 0
0 0 0 0 0 0 0 0 0 0 0 0 0 0 0 0 0 0 0 0 0 0 0 0 0 0 0 0 0 0 0 0 0 0 0 0 0 0
0 0 0 0 0 0 0 0 0 0 0 0 0 0 0 0 0 0 0 0 0 0 0 0 0 0 0 0 0 0 0 0 0 0 0 0 0 0
0 0 0 0 0 0 0 0 0 0 0 0 0 0 0 0 0 0 0 0 0 0 0 0 0 0 0 0 0 0 0 0 0 0 0 0 0 0
0 0 0 0 0 0 0 0 0 0 0 0 0 0 0 0 0 0 0 0 0 0 0 0 0 0 0 0 0 0 0 0 0 0 0 0 0 0
0 0 0 0 0 0 0 0 0 0 0 0 0 0 0 0 0 0 0 0 0 0 0 0 0 0 0 0 0 0 0 0 0 0 0 0 0 0
0 0 0 0 0 0 0 0 0 0 0 0 0 0 0 0 0 0 0 0 0 0 0 0 0 0 0 0 0 0 0 0 0 0 0 0 0 0
0 0 0 0 0 0 0 0 0 0 0 0 0 0 0 0 0 0 0 0 0 0 0 0 0 0 0 0 0 0 0 0 0 0 0 0 0 0
0 0 0 0 0 0 0 0 0 0 0 0 0 0 0 0 0 0 0 0 0 0 0 0 0 0 0 0 0 0 0 0 0 0 0 0 0 0
Wind_Speed
7 8 7 6 6 5 4 5 6 5 4 4 3 2 3 3 7 7 6 11 12 11 11 11 10 9 8 7 7 6 6 6 6 5 4 2 1 1
4 5 6 5 5 5 5 4 4 4 4 4 3 2 3 4 7 7 6 11 12 11 11 10 10 9 8 7 7 7 6 6 5 4 3 2 1 1
2 4 5 5 4 5 5 5 5 4 4 2 1 2 3 4 5 4 5 5 6 10 10 10 9 8 8 7 7 7 6 6 5 4 4 3 2 1
2 3 4 4 5 4 4 5 5 5 4 4 3 2 3 4 5 5 4 5 4 8 9 9 8 8 8 8 8 7 7 6 5 5 4 4 4 5
1 2 3 4 4 3 4 4 4 4 4 4 4 2 2 3 4 4 5 4 5 6 8 9 9 9 9 9 9 8 7 7 7 7 7 8 8 9
2 2 2 4 4 5 4 5 4 4 4 4 4 3 3 3 4 5 5 4 5 6 8 9 12 12 11 11 10 10 10 10 10 10 10 10 10 11
4 3 2 3 6 5 4 4 5 4 4 4 4 3 3 4 5 4 6 6 5 5 7 6 7 6 6 9 10 12 12 11 11 11 11 10 11 11
4 3 3 3 5 6 7 7 7 6 5 4 3 4 4 4 5 7 7 7 4 4 6 6 5 6 4 4 9 12 13 12 11 11 11 11 11 11
4 3 3 4 5 4 5 6 5 6 6 5 5 5 5 5 7 8 7 5 5 6 6 5 4 5 4 6 11 12 12 12 11 11 11 10 10 10
4 3 3 3 3 4 5 5 4 3 3 3 4 4 4 6 7 7 8 8 8 5 4 5 3 4 4 4 9 10 10 10 10 10 9 9 8 8
4 5 4 3 4 6 6 5 5 3 4 5 5 5 7 10 11 9 9 10 7 3 2 4 4 3 3 3 4 7 7 7 7 7 7 7 7 7
4 5 6 4 5 6 5 5 5 3 4 5 5 6 6 9 11 9 9 9 7 4 3 4 5 4 3 1 1 2 3 5 5 5 5 6 6 4
3 3 3 6 6 6 5 4 5 5 5 5 5 5 5 5 5 5 5 7 6 4 6 5 4 3 4 3 2 1 1 1 2 3 4 6 7 5
2 2 2 5 7 7 5 6 8 7 4 5 5 5 4 4 5 6 6 5 4 5 8 6 5 5 5 4 3 2 2 2 2 1 1 4 6 6
2 3 5 6 6 6 7 8 6 4 4 5 5 4 3 4 5 5 7 7 8 7 5 3 6 6 4 4 4 4 3 2 2 3 2 2 2 2
3 4 7 8 6 6 5 5 4 4 4 4 4 3 4 4 5 4 5 5 5 4 6 5 5 7 4 3 4 4 3 3 3 3 2 1 1 2
2 3 3 3 4 3 4 3 3 3 4 3 4 4 5 5 4 3 3 4 4 3 3 4 6 6 6 4 4 3 3 2 2 3 3 2 2 3
4 3 3 3 3 3 3 3 3 3 3 4 4 4 4 4 4 3 3 4 5 3 3 2 3 4 4 5 3 4 3 2 2 2 3 3 3 4
4 3 2 2 2 2 2 2 2 2 3 4 4 4 4 4 4 4 4 4 4 3 2 2 2 3 3 1 1 1 4 3 3 2 2 3 3 4
2 2 2 2 2 2 2 2 2 3 3 3 3 3 4 4 4 4 4 4 4 3 2 1 2 3 4 5 3 2 2 4 4 3 2 2 2 3
1 1 1 2 2 2 2 3 3 3 3 3 3 4 4 4 4 4 4 6 4 3 3 3 2 3 3 4 3 1 2 2 4 4 4 2 1 2
2 2 1 2 2 2 3 3 3 3 4 3 3 3 3 4 5 5 5 4 3 3 3 2 2 2 2 3 3 3 2 1 2 3 6 7 5 4
3 3 2 2 2 2 2 3 4 3 3 4 4 4 4 4 4 4 4 4 4 3 3 3 2 1 2 2 3 3 3 2 1 1 4 8 13 13
Wind_Direction
203 200 200 202 197 192 176 167 166 179 199 193 188 202 188 169 167 172 175 190 190 188 187 185 182 181 178 174 169 163 161 158 156 161 172 188 230 307
192 193 195 192 188 187 184 181 176 169 184 186 186 180 180 169 170 168 175 185 191 189 189 186 183 180 175 170 164 159 155 153 154 153 152 142 105 353
173 183 189 180 179 185 182 180 179 165 167 166 158 150 156 159 153 154 162 176 186 186 184 180 175 170 165 161 153 147 144 143 143 142 135 132 132 100
154 161 170 169 166 173 177 179 178 168 160 160 154 149 154 162 151 148 149 156 154 170 168 161 158 155 151 145 137 133 133 130 128 125 121 116 104 92
89 135 149 149 157 164 170 172 171 163 151 149 150 141 127 135 129 121 118 114 127 129 129 128 127 126 126 124 121 120 119 115 110 104 100 98 94 89
58 100 129 145 155 157 163 165 158 153 147 145 142 137 126 131 133 132 125 114 112 108 102 101 104 102 104 108 111 112 111 107 105 103 99 94 91 88
46 63 107 136 149 152 153 155 150 145 146 144 142 139 138 147 149 140 134 121 101 108 107 98 96 90 88 99 106 110 108 107 106 103 98 93 92 90
48 48 74 91 121 133 143 154 155 153 151 146 146 153 152 147 136 141 139 135 124 120 109 95 92 92 82 88 107 110 110 109 105 103 100 97 96 95
45 53 70 76 78 94 112 116 132 150 154 149 151 162 157 154 146 147 146 133 120 130 113 95 84 87 77 92 104 108 111 111 108 107 107 104 100 97
44 54 74 73 86 106 104 94 86 87 129 143 154 162 157 152 149 141 131 110 102 102 99 104 90 79 68 68 97 104 106 109 110 112 114 111 105 101
39 49 61 76 99 110 109 108 96 77 80 103 119 128 140 140 136 130 132 134 129 114 90 107 116 93 66 48 68 87 99 105 111 123 131 129 115 91
37 38 41 64 87 105 114 117 110 96 92 88 83 91 115 134 139 142 144 144 136 129 137 115 136 132 113 73 51 58 73 84 91 98 126 149 138 102
37 30 20 49 81 93 101 102 109 104 96 94 90 89 95 106 116 119 132 146 143 134 152 130 138 133 124 136 157 159 133 110 68 55 80 116 138 136
36 17 20 55 78 86 86 98 100 92 87 87 86 86 95 101 104 105 101 90 87 130 149 139 136 147 132 135 157 162 162 165 148 133 101 96 99 114
26 43 69 72 73 73 81 90 92 91 93 93 90 80 77 95 102 97 90 86 76 80 101 120 131 134 131 143 150 150 158 184 177 168 175 174 169 137
32 55 70 73 68 69 71 69 76 94 105 105 101 90 81 82 87 96 103 101 88 58 36 51 119 130 125 126 137 147 155 167 172 179 172 191 225 214
62 61 58 60 60 58 61 66 77 92 95 97 103 101 96 94 86 76 88 87 95 101 64 42 63 74 79 116 121 134 142 158 170 160 152 188 246 229
83 80 79 79 86 90 95 87 83 99 105 108 106 108 113 111 99 81 83 98 106 106 107 112 107 82 65 42 65 141 151 166 167 158 150 172 246 247
87 91 95 102 107 103 104 107 110 114 116 118 118 119 118 115 113 112 107 105 107 110 111 110 104 109 118 172 314 83 161 168 155 163 183 188 221 249
89 111 114 118 124 128 130 122 117 117 116 123 125 127 128 128 131 136 137 136 133 127 122 113 140 152 166 180 189 203 172 165 166 181 200 213 249 287
126 127 133 132 133 141 143 138 134 134 134 132 134 138 139 133 138 148 151 150 138 142 162 189 189 138 115 98 102 237 256 216 184 179 175 177 239 291
185 169 159 147 142 142 144 142 136 138 140 138 144 146 147 146 151 155 158 159 165 169 174 166 135 121 123 147 180 205 227 245 262 231 215 192 178 201
198 192 185 172 159 152 149 153 154 158 160 156 154 155 152 151 156 157 162 164 159 159 152 154 151 147 163 171 182 197 207 209 216 268 269 245 233 239